Location: Unspecified
(42.3650°N, 71.1030°W)
Time: 01:28:36
(UTC+00:00)

Vanguard 3 - Pass Details

Date: 28 June 2024
Orbit: 508 x 3230 km, 33.4° (Epoch: 20 July)

Event Time Altitude Azimuth Distance (km) Brightness Sun altitude
Rises 08:00:25 0° 186° (S) 7,174 11.5 -10.8°
Reaches altitude 10° 08:09:29 10° 165° (SSE) 5,980 11.3 -9.6°
Maximum altitude 08:16:39 14° 142° (SE) 5,346 11.3 -8.6°
Drops below altitude 10° 08:23:00 10° 118° (ESE) 5,226 11.5 -7.8°
Sets 08:29:32 0° 95° (E) 5,663 12.2 -6.8°
